When you browse on this site, cookies collect data to enhance your experience and personalize the content and advertising you see.
Visit our Privacy Policy to learn more. By continuing to use the site, you agree to this use of cookies and data.
  • en Belgique
  • Liste des pays
  • À 7 jours
  • Température de l'eau
  • Carte satellitaire
  • Carte météo
  • Widgets météo
  • user-avatar
    Se connecter

    Météo par heure à Lukotino

    Ce jour, 24 Juin, Lundi

    Heure Température Précipitation Vent Pression Humidité
    00:00 +13°C° 0 mm 1 m/s 754 mmHg 70%
    01:00 +12°C° 0 mm 1 m/s 755 mmHg 67%
    02:00 +11°C° 0 mm 1 m/s 755 mmHg 66%
    03:00 +12°C° 0 mm 1 m/s 755 mmHg 65%
    04:00 +13°C° 0 mm 1 m/s 755 mmHg 64%
    05:00 +14°C° 0 mm 1 m/s 755 mmHg 63%
    06:00 +16°C° 0 mm 1 m/s 755 mmHg 57%
    07:00 +19°C° 0 mm 1 m/s 755 mmHg 51%
    08:00 +21°C° 0 mm 1 m/s 755 mmHg 44%
    09:00 +19°C° 0 mm 2 m/s 755 mmHg 48%
    10:00 +19°C° 0 mm 3 m/s 755 mmHg 51%
    11:00 +18°C° 0 mm 4 m/s 755 mmHg 55%
    12:00 +19°C° 0.1 mm 4 m/s 755 mmHg 53%
    13:00 +19°C° 0.1 mm 4 m/s 755 mmHg 51%
    14:00 +20°C° 0.1 mm 4 m/s 755 mmHg 49%
    15:00 +20°C° 0 mm 4 m/s 755 mmHg 48%
    16:00 +20°C° 0 mm 4 m/s 755 mmHg 47%
    17:00 +21°C° 0 mm 4 m/s 755 mmHg 46%
    18:00 +19°C° 0 mm 3 m/s 756 mmHg 55%
    19:00 +17°C° 0 mm 3 m/s 756 mmHg 63%
    20:00 +15°C° 0 mm 2 m/s 756 mmHg 71%
    21:00 +14°C° 0 mm 2 m/s 756 mmHg 72%
    22:00 +13°C° 0 mm 2 m/s 757 mmHg 73%
    23:00 +12°C° 0 mm 2 m/s 757 mmHg 74%

    Demain, 25 Juin, Mardi

    Heure Température Précipitation Vent Pression Humidité
    00:00 +10°C° 0 mm 2 m/s 757 mmHg 75%
    01:00 +10°C° 0 mm 2 m/s 758 mmHg 75%
    02:00 +9°C° 0 mm 2 m/s 758 mmHg 75%
    03:00 +10°C° 0 mm 2 m/s 758 mmHg 74%
    04:00 +12°C° 0 mm 2 m/s 758 mmHg 73%
    05:00 +12°C° 0 mm 2 m/s 758 mmHg 72%
    06:00 +14°C° 0 mm 2 m/s 758 mmHg 66%
    07:00 +16°C° 0 mm 2 m/s 759 mmHg 60%
    08:00 +18°C° 0 mm 2 m/s 759 mmHg 54%
    09:00 +19°C° 0 mm 2 m/s 759 mmHg 50%
    10:00 +20°C° 0 mm 3 m/s 759 mmHg 45%
    11:00 +21°C° 0 mm 3 m/s 759 mmHg 41%
    12:00 +20°C° 0 mm 3 m/s 758 mmHg 42%
    13:00 +20°C° 0 mm 3 m/s 758 mmHg 43%
    14:00 +20°C° 0 mm 2 m/s 758 mmHg 44%
    15:00 +20°C° 0 mm 2 m/s 758 mmHg 48%
    16:00 +20°C° 0 mm 2 m/s 758 mmHg 51%
    17:00 +20°C° 0 mm 1 m/s 758 mmHg 54%
    18:00 +19°C° 0 mm 1 m/s 757 mmHg 60%
    19:00 +18°C° 0 mm 1 m/s 757 mmHg 66%
    20:00 +15°C° 0 mm 1 m/s 757 mmHg 72%
    21:00 +15°C° 0 mm 1 m/s 757 mmHg 74%
    22:00 +14°C° 0 mm 1 m/s 757 mmHg 76%
    23:00 +13°C° 0 mm 1 m/s 757 mmHg 78%

    Après-demain, 26 Juin, Mercredi

    Heure Température Précipitation Vent Pression Humidité
    00:00 +13°C° 0 mm 1 m/s 757 mmHg 76%
    01:00 +13°C° 0 mm 1 m/s 756 mmHg 74%
    02:00 +13°C° 0 mm 1 m/s 756 mmHg 72%
    03:00 +14°C° 0 mm 1 m/s 756 mmHg 72%
    04:00 +14°C° 0 mm 1 m/s 756 mmHg 72%
    05:00 +15°C° 0 mm 2 m/s 755 mmHg 72%
    06:00 +16°C° 0 mm 2 m/s 755 mmHg 65%
    07:00 +17°C° 0 mm 3 m/s 755 mmHg 58%
    08:00 +19°C° 0 mm 3 m/s 755 mmHg 51%
    09:00 +19°C° 0 mm 3 m/s 754 mmHg 51%
    10:00 +20°C° 0 mm 3 m/s 754 mmHg 50%
    11:00 +20°C° 0 mm 3 m/s 754 mmHg 49%
    12:00 +20°C° 0.2 mm 3 m/s 753 mmHg 53%
    13:00 +20°C° 0.2 mm 3 m/s 753 mmHg 56%
    14:00 +20°C° 0.2 mm 3 m/s 753 mmHg 59%
    15:00 +19°C° 0.6 mm 3 m/s 752 mmHg 65%
    16:00 +19°C° 0.6 mm 2 m/s 752 mmHg 72%
    17:00 +18°C° 0.6 mm 2 m/s 751 mmHg 78%
    18:00 +18°C° 0.1 mm 1 m/s 751 mmHg 81%
    19:00 +16°C° 0.1 mm 1 m/s 751 mmHg 84%
    20:00 +13°C° 0.1 mm 0 m/s 750 mmHg 87%
    21:00 +12°C° 0 mm 0 m/s 750 mmHg 88%
    22:00 +11°C° 0 mm 0 m/s 750 mmHg 89%
    23:00 +10°C° 0 mm 0 m/s 750 mmHg 91%

    27 Juin, Jeudi

    Heure Température Précipitation Vent Pression Humidité
    00:00 +11°C° 0 mm 1 m/s 749 mmHg 92%
    01:00 +11°C° 0 mm 1 m/s 749 mmHg 94%
    02:00 +10°C° 0 mm 1 m/s 748 mmHg 95%
    03:00 +10°C° 0 mm 2 m/s 748 mmHg 94%
    04:00 +12°C° 0 mm 2 m/s 747 mmHg 92%
    05:00 +12°C° 0 mm 2 m/s 747 mmHg 91%
    06:00 +13°C° 0 mm 3 m/s 746 mmHg 84%
    07:00 +14°C° 0 mm 3 m/s 745 mmHg 76%
    08:00 +17°C° 0 mm 4 m/s 745 mmHg 69%
    09:00 +18°C° 0 mm 4 m/s 744 mmHg 66%
    10:00 +18°C° 0 mm 4 m/s 744 mmHg 63%
    11:00 +19°C° 0 mm 4 m/s 743 mmHg 60%
    12:00 +18°C° 0.1 mm 3 m/s 742 mmHg 65%
    13:00 +18°C° 0.1 mm 3 m/s 742 mmHg 70%
    14:00 +17°C° 0.1 mm 3 m/s 741 mmHg 75%
    15:00 +17°C° 0.1 mm 3 m/s 740 mmHg 78%
    16:00 +16°C° 0.1 mm 2 m/s 740 mmHg 81%
    17:00 +16°C° 0.1 mm 2 m/s 739 mmHg 83%
    18:00 +16°C° 0 mm 2 m/s 739 mmHg 85%
    19:00 +15°C° 0 mm 2 m/s 739 mmHg 86%
    20:00 +15°C° 0 mm 1 m/s 739 mmHg 88%
    21:00 +14°C° 0 mm 2 m/s 738 mmHg 90%
    22:00 +14°C° 0 mm 2 m/s 738 mmHg 92%
    23:00 +13°C° 0 mm 2 m/s 738 mmHg 94%

    28 Juin, Vendredi

    Heure Température Précipitation Vent Pression Humidité
    00:00 +12°C° 0 mm 3 m/s 737 mmHg 93%
    01:00 +12°C° 0 mm 3 m/s 737 mmHg 93%
    02:00 +11°C° 0 mm 3 m/s 737 mmHg 93%
    03:00 +12°C° 0 mm 3 m/s 736 mmHg 91%
    04:00 +12°C° 0 mm 3 m/s 736 mmHg 90%
    05:00 +12°C° 0 mm 4 m/s 736 mmHg 88%
    06:00 +13°C° 0.1 mm 4 m/s 736 mmHg 83%
    07:00 +13°C° 0.1 mm 4 m/s 735 mmHg 78%
    08:00 +14°C° 0.1 mm 5 m/s 735 mmHg 73%
    09:00 +13°C° 0.5 mm 5 m/s 735 mmHg 78%
    10:00 +13°C° 0.5 mm 5 m/s 735 mmHg 84%
    11:00 +12°C° 0.5 mm 5 m/s 734 mmHg 89%
    12:00 +12°C° 1.8 mm 5 m/s 734 mmHg 91%
    13:00 +12°C° 1.8 mm 5 m/s 734 mmHg 94%
    14:00 +10°C° 1.8 mm 5 m/s 734 mmHg 96%
    15:00 +11°C° 0.5 mm 4 m/s 734 mmHg 96%
    16:00 +11°C° 0.5 mm 4 m/s 734 mmHg 96%
    17:00 +11°C° 0.5 mm 4 m/s 734 mmHg 96%
    18:00 +11°C° 0.3 mm 4 m/s 734 mmHg 97%
    19:00 +11°C° 0.3 mm 4 m/s 733 mmHg 97%
    20:00 +11°C° 0.3 mm 4 m/s 733 mmHg 97%
    21:00 +11°C° 0.4 mm 4 m/s 733 mmHg 97%
    22:00 +11°C° 0.4 mm 4 m/s 732 mmHg 98%
    23:00 +11°C° 0.4 mm 4 m/s 732 mmHg 98%

    29 Juin, Samedi

    Heure Température Précipitation Vent Pression Humidité
    00:00 +11°C° 2.1 mm 4 m/s 732 mmHg 98%
    01:00 +11°C° 2.1 mm 4 m/s 731 mmHg 98%
    02:00 +11°C° 2.1 mm 4 m/s 731 mmHg 98%
    03:00 +11°C° 2.1 mm 3 m/s 731 mmHg 98%
    04:00 +11°C° 2.1 mm 3 m/s 731 mmHg 98%
    05:00 +11°C° 2.1 mm 3 m/s 730 mmHg 98%
    06:00 +12°C° 0.2 mm 3 m/s 730 mmHg 98%
    07:00 +13°C° 0.2 mm 3 m/s 731 mmHg 97%
    08:00 +13°C° 0.2 mm 3 m/s 731 mmHg 97%
    09:00 +14°C° 0.6 mm 3 m/s 731 mmHg 97%
    10:00 +14°C° 0.6 mm 3 m/s 732 mmHg 96%
    11:00 +14°C° 0.6 mm 4 m/s 732 mmHg 96%
    12:00 +14°C° 0.7 mm 4 m/s 732 mmHg 95%
    13:00 +15°C° 0.7 mm 4 m/s 732 mmHg 94%
    14:00 +15°C° 0.7 mm 5 m/s 733 mmHg 92%
    15:00 +15°C° 0.5 mm 5 m/s 733 mmHg 92%
    16:00 +15°C° 0.5 mm 5 m/s 733 mmHg 92%
    17:00 +15°C° 0.5 mm 5 m/s 734 mmHg 92%
    18:00 +14°C° 0.2 mm 5 m/s 734 mmHg 93%
    19:00 +14°C° 0.2 mm 5 m/s 734 mmHg 95%
    20:00 +13°C° 0.2 mm 5 m/s 735 mmHg 96%
    21:00 +13°C° 0.2 mm 5 m/s 735 mmHg 96%
    22:00 +13°C° 0.2 mm 4 m/s 735 mmHg 96%
    23:00 +13°C° 0.2 mm 4 m/s 736 mmHg 97%
    Voir plus